Location: San Antonio
(29.4240°N, 98.4930°W)
Time: 14:43:23
(UTC-05:00)

BlueWalker 3 - Pass Details

Date: 20 June 2024
Orbit: 480 x 492 km, 53.2° (Epoch: 11 July)

Event Time Altitude Azimuth Distance (km) Brightness Sun altitude
Rises 22:09:15 0° 262° (W) 2,534 6.1 -17.5°
Reaches altitude 10° 22:12:12 10° 287° (WNW) 1,655 5.6 -18.0°
Maximum altitude 22:14:21 15° 322° (NW) 1,394 5.3 -18.3°
Drops below altitude 10° 22:16:29 10° 358° (N) 1,655 5.2 -18.7°
Sets 22:19:27 0° 23° (NNE) 2,534 5.8 -19.1°
